Wolf Creek Pass, CO

5:49 PM MDT on April 23, 2018 (GMT -0600)
Wolf Creek Pass

Weather History for KCPW - January, 2014

Change the Weather History Date:

Monday, January 27, 2014

  Actual Average (KALS) Record (KALS)
Temperature  
Mean Temperature 18 °F -  
Max Temperature 23 °F 36 °F 55 °F (1970)
Min Temperature 14 °F 2 °F -35 °F (1948)
Degree Days  
Heating Degree Days 46    
Moisture  
Dew Point 8 °F    
Average Humidity 66    
Maximum Humidity 79    
Minimum Humidity 45    
Precipitation  
Precipitation 0.00 in - - ()
Sea Level Pressure  
Sea Level Pressure 29.96 in    
Wind  
Wind Speed 17 mph (SW)    
Max Wind Speed 29 mph    
Max Gust Speed 51 mph    
Visibility 10 miles    
Events      
Averages and records for this station are not official NWS values.
T = Trace of Precipitation, MM = Missing Value Source: NWS Daily Summary

Daily Weather History Graph

Daily Weather History Graph

Search for Another Location

Airport or City:

Astronomy

Jan. 27, 2014 Rise Set
Actual Time 7:14 AM MST 5:26 PM MST
Civil Twilight 6:46 AM MST 5:53 PM MST
Nautical Twilight 6:15 AM MST 6:25 PM MST
Astronomical Twilight 5:44 AM MST 6:56 PM MST
Moon 3:57 AM MST (1/27) 2:15 PM MST (1/27)
Length of Visible Light 11h 07m
Length of Day
10h 11m
Waning Crescent, 14% of the Moon is Illuminated
Jan 27
Waning Crescent
Jan 30
New
Feb 6
First Quarter
Feb 14
Full
Feb 22
Last Quarter

Hourly Weather History & Observations

Time (MST) Temp. Windchill Dew Point Humidity Pressure Visibility Wind Dir Wind Speed Gust Speed Precip Events Conditions
12:18 AM 21.2 °F 11.7 °F 3.2 °F 46% 30.05 in 10.0 mi SW 8.1 mph - N/A   Clear
12:38 AM 19.4 °F 7.2 °F 3.2 °F 49% 30.05 in 10.0 mi SW 11.5 mph - N/A   Clear
12:58 AM 19.4 °F 5.0 °F 5.0 °F 54% 30.04 in 10.0 mi SW 16.1 mph - N/A   Clear
1:18 AM 17.6 °F 6.4 °F 6.8 °F 63% 30.03 in 10.0 mi SSW 9.2 mph - N/A   Clear
1:38 AM 15.8 °F 3.4 °F 8.6 °F 73% 30.03 in 10.0 mi SW 10.4 mph - N/A   Clear
1:58 AM 14.0 °F -0.8 °F 8.6 °F 79% 30.02 in 10.0 mi SW 13.8 mph 19.6 mph N/A   Clear
2:18 AM 17.6 °F 1.3 °F 10.4 °F 73% 30.02 in 10.0 mi SW 19.6 mph - N/A   Clear
2:38 AM 17.6 °F 2.2 °F 10.4 °F 73% 30.02 in 10.0 mi SW 17.3 mph - N/A   Clear
2:58 AM 17.6 °F 1.7 °F 10.4 °F 73% 30.02 in 10.0 mi SW 18.4 mph - N/A   Clear
3:18 AM 15.8 °F -1.1 °F 10.4 °F 79% 30.02 in 10.0 mi SW 19.6 mph - N/A   Clear
3:38 AM 15.8 °F -1.5 °F 10.4 °F 79% 30.02 in 10.0 mi SW 20.7 mph - N/A   Clear
3:58 AM 15.8 °F -2.3 °F 8.6 °F 73% 30.01 in 10.0 mi SW 23.0 mph - N/A   Clear
4:18 AM 14.0 °F -4.3 °F 8.6 °F 79% 30.01 in 10.0 mi SW 21.9 mph - N/A   Clear
4:38 AM 15.8 °F -2.3 °F 8.6 °F 73% 30.01 in 10.0 mi SW 23.0 mph - N/A   Clear
4:58 AM 14.0 °F -4.3 °F 8.6 °F 79% 30.01 in 10.0 mi SW 21.9 mph - N/A   Clear
5:18 AM 14.0 °F -4.3 °F 8.6 °F 79% 30.00 in 10.0 mi SW 21.9 mph - N/A   Clear
5:38 AM 14.0 °F -3.9 °F 8.6 °F 79% 30.00 in 10.0 mi SW 20.7 mph - N/A   Clear
5:58 AM 14.0 °F -3.9 °F 8.6 °F 79% 30.00 in 10.0 mi SW 20.7 mph - N/A   Clear
6:18 AM 14.0 °F -3.9 °F 8.6 °F 79% 30.00 in 10.0 mi SW 20.7 mph - N/A   Clear
6:38 AM 14.0 °F -3.0 °F 8.6 °F 79% 30.00 in 10.0 mi SW 18.4 mph - N/A   Clear
6:58 AM 14.0 °F -3.0 °F 8.6 °F 79% 30.01 in 10.0 mi SW 18.4 mph - N/A   Clear
7:18 AM 14.0 °F -3.9 °F 8.6 °F 79% 30.00 in 10.0 mi SW 20.7 mph - N/A   Clear
7:38 AM 14.0 °F -3.4 °F 8.6 °F 79% 30.00 in 10.0 mi SW 19.6 mph - N/A   Clear
7:58 AM 14.0 °F -3.0 °F 8.6 °F 79% 30.00 in 10.0 mi SW 18.4 mph - N/A   Clear
8:18 AM 15.8 °F 0.3 °F 8.6 °F 73% 30.01 in 10.0 mi SW 16.1 mph 21.9 mph N/A   Clear
8:38 AM 15.8 °F -1.1 °F 8.6 °F 73% 30.00 in 10.0 mi SW 19.6 mph - N/A   Clear
8:44 AM 17.6 °F 3.2 °F 8.6 °F 68% 30.01 in 10.0 mi SW 15.0 mph 20.7 mph N/A   Clear
11:38 AM 21.2 °F 8.3 °F 10.4 °F 63% 30.01 in 10.0 mi SW 13.8 mph 21.9 mph N/A   Clear
11:58 AM 21.2 °F 7.8 °F 10.4 °F 63% 30.01 in 10.0 mi SSW 15.0 mph 23.0 mph N/A   Clear
12:18 PM 23.0 °F 9.2 °F 10.4 °F 59% 29.99 in 10.0 mi SSW 17.3 mph 25.3 mph N/A   Clear
12:38 PM 23.0 °F 9.2 °F 10.4 °F 59% 29.98 in 10.0 mi SSW 17.3 mph 26.5 mph N/A   Clear
12:58 PM 23.0 °F 10.6 °F 10.4 °F 59% 29.97 in 10.0 mi SSW 13.8 mph 23.0 mph N/A   Clear
1:18 PM 23.0 °F 9.6 °F 10.4 °F 59% 29.96 in 10.0 mi SSW 16.1 mph 24.2 mph N/A   Clear
1:38 PM 23.0 °F 10.6 °F 10.4 °F 59% 29.95 in 10.0 mi SW 13.8 mph 20.7 mph N/A   Scattered Clouds
1:58 PM 23.0 °F 9.6 °F 10.4 °F 59% 29.94 in 10.0 mi SSW 16.1 mph 24.2 mph N/A   Mostly Cloudy
2:18 PM 23.0 °F 8.7 °F 10.4 °F 59% 29.93 in 10.0 mi SW 18.4 mph 27.6 mph N/A   Mostly Cloudy
2:38 PM 23.0 °F 9.2 °F 10.4 °F 59% 29.93 in 10.0 mi SW 17.3 mph 23.0 mph N/A   Mostly Cloudy
2:58 PM 19.4 °F 2.5 °F 10.4 °F 68% 29.92 in 10.0 mi SW 23.0 mph 34.5 mph N/A   Overcast
3:18 PM 21.2 °F 4.5 °F 10.4 °F 63% 29.91 in 10.0 mi SW 24.2 mph 31.1 mph N/A   Overcast
3:38 PM 21.2 °F 5.6 °F 10.4 °F 63% 29.91 in 10.0 mi SSW 20.7 mph 33.4 mph N/A   Overcast
3:58 PM 21.2 °F 4.5 °F 10.4 °F 63% 29.91 in 10.0 mi SW 24.2 mph 33.4 mph N/A   Scattered Clouds
4:18 PM 19.4 °F 4.5 °F 10.4 °F 68% 29.91 in 10.0 mi SW 17.3 mph 29.9 mph N/A   Scattered Clouds
4:38 PM 23.0 °F 7.2 °F 10.4 °F 59% 29.91 in 10.0 mi SW 23.0 mph 32.2 mph N/A   Clear
4:58 PM 23.0 °F 6.9 °F 10.4 °F 59% 29.91 in 10.0 mi SSW 24.2 mph 36.8 mph N/A   Scattered Clouds
5:18 PM 21.2 °F 4.9 °F 10.4 °F 63% 29.91 in 10.0 mi SW 23.0 mph 31.1 mph N/A   Scattered Clouds
5:38 PM 19.4 °F 2.5 °F 8.6 °F 63% 29.91 in 10.0 mi SW 23.0 mph 33.4 mph N/A   Scattered Clouds
5:58 PM 19.4 °F 3.2 °F 8.6 °F 63% 29.91 in 10.0 mi SW 20.7 mph - N/A   Clear
6:18 PM 19.4 °F 2.1 °F 8.6 °F 63% 29.91 in 10.0 mi SW 24.2 mph 28.8 mph N/A   Clear
6:38 PM 19.4 °F 3.6 °F 8.6 °F 63% 29.89 in 10.0 mi SW 19.6 mph 29.9 mph N/A   Clear
6:58 PM 19.4 °F 2.5 °F 8.6 °F 63% 29.90 in 10.0 mi SW 23.0 mph 32.2 mph N/A   Clear
7:18 PM 17.6 °F 0.1 °F 8.6 °F 68% 29.90 in 10.0 mi SW 23.0 mph 29.9 mph N/A   Clear
7:38 PM 17.6 °F 1.3 °F 10.4 °F 73% 29.90 in 10.0 mi SW 19.6 mph 26.5 mph N/A   Clear
7:58 PM 17.6 °F 1.7 °F 10.4 °F 73% 29.89 in 10.0 mi SW 18.4 mph 28.8 mph N/A   Clear
8:18 PM 15.8 °F -0.6 °F 10.4 °F 79% 29.91 in 10.0 mi SW 18.4 mph 29.9 mph N/A   Clear
8:38 PM 15.8 °F -0.6 °F 10.4 °F 79% 29.91 in 10.0 mi WSW 18.4 mph 28.8 mph N/A   Clear
8:58 PM 17.6 °F 2.2 °F 3.2 °F 53% 29.90 in 10.0 mi WSW 17.3 mph 33.4 mph N/A   Clear
9:18 PM 17.6 °F 0.5 °F 1.4 °F 49% 29.90 in 10.0 mi West 21.9 mph 29.9 mph N/A   Clear
9:38 PM 17.6 °F -1.0 °F 1.4 °F 49% 29.89 in 10.0 mi West 26.5 mph 35.7 mph N/A   Clear
9:58 PM 17.6 °F -1.3 °F 1.4 °F 49% 29.89 in 10.0 mi WSW 27.6 mph 39.1 mph N/A   Clear
10:18 PM 17.6 °F -1.0 °F -0.4 °F 45% 29.88 in 10.0 mi WSW 26.5 mph 50.6 mph N/A   Clear
10:38 PM 15.8 °F -4.1 °F -0.4 °F 49% 29.89 in 10.0 mi WSW 28.8 mph 41.4 mph N/A   Clear
10:58 PM 15.8 °F -2.3 °F -0.4 °F 49% 29.89 in 10.0 mi West 23.0 mph 34.5 mph N/A   Clear
11:18 PM 15.8 °F -0.6 °F -0.4 °F 49% 29.91 in 10.0 mi WSW 18.4 mph 40.3 mph N/A   Clear
11:38 PM 14.0 °F -2.5 °F -0.4 °F 53% 29.91 in 10.0 mi WSW 17.3 mph 28.8 mph N/A   Clear
11:58 PM 14.0 °F -0.2 °F 1.4 °F 57% 29.91 in 10.0 mi WSW 12.7 mph 29.9 mph N/A   Clear